Weather History for KSXT - March, 2013

Change the Weather History Date:

Wednesday, March 20, 2013

  Actual Average (WUND) Record (WUND)
Temperature  
Mean Temperature 34 °F -  
Max Temperature 42 °F - - (-1)
Min Temperature 28 °F - - (-1)
Degree Days  
Heating Degree Days 30    
Moisture  
Dew Point 34 °F    
Average Humidity 94    
Maximum Humidity 100    
Minimum Humidity 70    
Precipitation  
Precipitation 0.31 in - - ()
Sea Level Pressure  
Sea Level Pressure 29.92 in    
Wind  
Wind Speed 13 mph (SW)    
Max Wind Speed 25 mph    
Max Gust Speed 37 mph    
Visibility 3 miles    
Events Fog , Rain , Snow    
Averages and records for this station are not official NWS values.
T = Trace of Precipitation, MM = Missing Value Source: NWS Daily Summary

Daily Weather History Graph

Daily Weather History Graph

Search for Another Location

Airport or City:

Trip Planner

Search our weather history database for the weather conditions in past years. The results will help you decide how hot, cold, wet, or windy it might be!

Date:

Astronomy

Mar. 20, 2013 Rise Set
Actual Time 7:16 AM PDT 7:26 PM PDT
Civil Twilight 6:48 AM PDT 7:54 PM PDT
Nautical Twilight 6:15 AM PDT 8:27 PM PDT
Astronomical Twilight 5:41 AM PDT 9:01 PM PDT
Moon 12:59 PM PDT (3/20) 3:06 AM PDT (3/20)
Length of Visible Light 13h 06m
Length of Day
12h 10m
First Quarter, 60% of the Moon is Illuminated
Mar 20
First Quarter
Mar 27
Full
Apr 2
Last Quarter
Apr 10
New
Apr 18
First Quarter

Hourly Weather History & Observations

Time (PDT) Temp. Windchill Dew Point Humidity Pressure Visibility Wind Dir Wind Speed Gust Speed Precip Events Conditions
12:46 AM 39.2 °F 30.2 °F 39.2 °F 100% 29.75 in 0.2 mi SSW 17.3 mph 27.6 mph 0.00 in Fog , Rain Light Rain
12:56 AM 39.9 °F 30.8 °F 39.9 °F 100% 29.75 in 0.2 mi SSW 18.4 mph 31.1 mph 0.00 in Fog , Rain Light Rain
1:13 AM 41.0 °F 32.5 °F 39.2 °F 93% 29.76 in 0.2 mi SSW 17.3 mph 36.8 mph 0.03 in Fog , Rain Rain
1:41 AM 39.2 °F 29.8 °F 39.2 °F 100% 29.75 in 0.5 mi South 18.4 mph 31.1 mph 0.05 in Fog , Rain Light Rain
1:49 AM 41.0 °F 32.5 °F 39.2 °F 93% 29.75 in 0.2 mi SSW 17.3 mph 27.6 mph 0.05 in Fog , Rain Light Rain
1:56 AM 41.0 °F 33.1 °F 39.9 °F 96% 29.75 in 0.2 mi South 15.0 mph 27.6 mph 0.06 in Fog , Rain Light Rain
2:56 AM 41.0 °F 31.4 °F 39.9 °F 96% 29.73 in 0.2 mi South 21.9 mph 36.8 mph 0.02 in Fog , Rain Light Rain
3:56 AM 41.0 °F 31.4 °F 41.0 °F 100% 29.73 in 0.2 mi South 21.9 mph 34.5 mph 0.00 in Fog , Rain Light Rain
4:36 AM 41.0 °F 31.1 °F 41.0 °F 100% 29.71 in 0.5 mi South 23.0 mph 36.8 mph 0.01 in Fog , Rain Light Rain
4:56 AM 41.0 °F 30.7 °F 39.9 °F 96% 29.71 in 0.5 mi South 25.3 mph 35.7 mph 0.01 in Fog , Rain Light Rain
5:20 AM 41.0 °F 31.6 °F 39.2 °F 93% 29.72 in 0.2 mi South 20.7 mph 36.8 mph 0.00 in Fog , Rain Light Rain
5:38 AM 41.0 °F 31.6 °F 39.2 °F 93% 29.71 in 0.5 mi South 20.7 mph 35.7 mph 0.00 in Fog , Rain Light Rain
5:56 AM 41.0 °F 31.6 °F 39.9 °F 96% 29.73 in 0.5 mi South 20.7 mph 36.8 mph 0.00 in Fog , Rain Light Rain
6:46 AM 41.0 °F 31.6 °F 39.2 °F 93% 29.72 in 0.5 mi South 20.7 mph 33.4 mph 0.01 in Fog , Rain Light Rain
6:56 AM 39.9 °F 29.7 °F 39.9 °F 100% 29.73 in 0.2 mi South 23.0 mph 35.7 mph 0.01 in Fog , Rain Light Rain
7:03 AM 39.2 °F 29.8 °F 39.2 °F 100% 29.72 in 0.5 mi South 18.4 mph 35.7 mph 0.00 in Fog , Rain Light Rain
7:23 AM 39.2 °F 30.2 °F 39.2 °F 100% 29.73 in 0.2 mi SSW 17.3 mph 34.5 mph 0.00 in Fog , Rain Light Rain
7:56 AM 39.9 °F 30.8 °F 39.9 °F 100% 29.75 in 0.2 mi SSW 18.4 mph 33.4 mph 0.00 in Fog , Rain Light Rain
8:56 AM 39.9 °F 31.4 °F 39.9 °F 100% 29.77 in 0.2 mi SSW 16.1 mph 32.2 mph 0.05 in Fog , Rain Light Rain
9:56 AM 41.0 °F 33.5 °F 41.0 °F 100% 29.79 in 0.2 mi SSW 13.8 mph 25.3 mph 0.04 in Fog , Rain Light Rain
10:54 AM 37.4 °F 29.3 °F 37.4 °F 100% 29.82 in 0.5 mi WSW 12.7 mph 21.9 mph 0.06 in Fog , Rain Light Rain
10:56 AM 37.0 °F 28.5 °F 36.0 °F 96% 29.84 in 1.0 mi WSW 13.8 mph 25.3 mph 0.06 in Rain Light Rain
10:58 AM 37.4 °F 30.3 °F 35.6 °F 93% 29.83 in 3.0 mi WSW 10.4 mph 25.3 mph 0.00 in Rain Light Rain
11:01 AM 37.4 °F 30.8 °F 37.4 °F 100% 29.83 in 2.5 mi West 9.2 mph 25.3 mph 0.00 in Rain Light Rain
11:05 AM 37.4 °F 32.1 °F 37.4 °F 100% 29.83 in 1.2 mi Variable 6.9 mph 25.3 mph 0.00 in Rain Light Rain
11:10 AM 37.4 °F 33.8 °F 37.4 °F 100% 29.84 in 0.2 mi Variable 4.6 mph - 0.00 in Fog , Rain Light Rain
11:21 AM 35.6 °F 31.7 °F 35.6 °F 100% 29.84 in 1.0 mi Variable 4.6 mph - 0.01 in Rain Light Rain
11:25 AM 35.6 °F 29.2 °F 35.6 °F 100% 29.84 in 1.8 mi SW 8.1 mph - 0.01 in Rain Light Rain
11:33 AM 37.4 °F 32.1 °F 35.6 °F 93% 29.85 in 2.0 mi Variable 6.9 mph 23.0 mph 0.01 in Rain Light Rain
11:36 AM 37.4 °F 32.1 °F 35.6 °F 93% 29.85 in 1.8 mi Variable 6.9 mph 23.0 mph 0.01 in Rain Light Rain
11:39 AM 37.4 °F 33.8 °F 35.6 °F 93% 29.85 in 0.8 mi Variable 4.6 mph - 0.01 in   Overcast
11:51 AM 37.4 °F 33.8 °F 35.6 °F 93% 29.86 in 1.0 mi Variable 4.6 mph - 0.01 in Rain Light Rain
11:56 AM 37.9 °F 33.5 °F 37.0 °F 97% 29.88 in 1.2 mi Variable 5.8 mph - 0.01 in Rain Light Rain
11:59 AM 37.4 °F 32.1 °F 37.4 °F 100% 29.86 in 1.0 mi Variable 6.9 mph - 0.00 in Rain Light Rain
12:02 PM 37.4 °F 32.1 °F 37.4 °F 100% 29.86 in 1.2 mi Variable 6.9 mph - 0.00 in Rain Light Rain
12:07 PM 37.4 °F 32.1 °F 37.4 °F 100% 29.86 in 2.0 mi Variable 6.9 mph - 0.00 in Rain Light Rain
12:15 PM 37.4 °F 33.8 °F 35.6 °F 93% 29.87 in 5.0 mi Variable 4.6 mph - 0.00 in   Overcast
12:56 PM 37.9 °F 33.5 °F 36.0 °F 93% 29.91 in 10.0 mi Variable 5.8 mph - 0.00 in   Overcast
1:29 PM 41.0 °F 35.8 °F 35.6 °F 81% 29.90 in 10.0 mi SW 8.1 mph 24.2 mph N/A   Scattered Clouds
1:53 PM 41.0 °F 34.3 °F 35.6 °F 81% 29.90 in 10.0 mi WSW 11.5 mph 23.0 mph N/A   Mostly Cloudy
1:56 PM 41.0 °F 38.0 °F 35.1 °F 79% 29.91 in 10.0 mi Variable 4.6 mph 23.0 mph N/A   Mostly Cloudy
2:56 PM 39.9 °F 33.9 °F 33.1 °F 77% 29.93 in 10.0 mi West 9.2 mph - N/A   Mostly Cloudy
3:56 PM 37.9 °F 32.7 °F 28.9 °F 70% 29.96 in 10.0 mi Variable 6.9 mph 23.0 mph N/A   Scattered Clouds
4:18 PM 37.4 °F 32.8 °F 30.2 °F 75% 29.95 in 10.0 mi Variable 5.8 mph - N/A   Overcast
4:56 PM 35.1 °F 31.0 °F 30.0 °F 82% 30.00 in 10.0 mi Variable 4.6 mph - N/A   Overcast
5:56 PM 33.1 °F 30.0 °F 30.0 °F 89% 30.04 in 9.0 mi Variable 3.5 mph - 0.00 in   Overcast
6:25 PM 32.0 °F 27.5 °F 30.2 °F 93% 30.01 in 8.0 mi Variable 4.6 mph - 0.00 in   Overcast
6:30 PM 32.0 °F - 30.2 °F 93% 30.01 in 1.5 mi Calm Calm - 0.00 in Snow Light Snow
6:38 PM 33.8 °F 30.8 °F 28.4 °F 81% 30.02 in 2.0 mi Variable 3.5 mph - 0.01 in Snow Light Snow
6:45 PM 32.0 °F 26.4 °F 28.4 °F 87% 30.02 in 9.0 mi Variable 5.8 mph - 0.01 in   Overcast
6:56 PM 32.0 °F 27.5 °F 28.9 °F 88% 30.07 in 10.0 mi Variable 4.6 mph - 0.01 in   Overcast
7:09 PM 30.2 °F 25.4 °F 28.4 °F 93% 30.03 in 10.0 mi Variable 4.6 mph - N/A   Overcast
7:54 PM 30.2 °F - 28.4 °F 93% 30.05 in 9.0 mi Calm Calm - N/A   Overcast
7:56 PM 30.9 °F - 28.9 °F 92% 30.10 in 6.0 mi Calm Calm - 0.00 in   Overcast
7:59 PM 30.2 °F 25.4 °F 28.4 °F 93% 30.05 in 2.5 mi Variable 4.6 mph - 0.00 in   Overcast
8:04 PM 30.2 °F 23.4 °F 28.4 °F 93% 30.06 in 1.0 mi Variable 6.9 mph - 0.00 in Snow Light Snow
8:16 PM 30.2 °F 24.3 °F 28.4 °F 93% 30.06 in 2.0 mi NNW 5.8 mph - 0.00 in   Overcast
8:20 PM 30.2 °F 24.3 °F 28.4 °F 93% 30.06 in 1.2 mi NW 5.8 mph - 0.00 in   Overcast
8:34 PM 28.4 °F 19.7 °F 26.6 °F 93% 30.07 in 2.0 mi NW 9.2 mph - 0.00 in   Overcast
8:42 PM 28.4 °F 21.2 °F 26.6 °F 93% 30.07 in 8.0 mi NNW 6.9 mph - 0.00 in   Overcast
8:56 PM 28.9 °F 22.8 °F 28.0 °F 96% 30.13 in 10.0 mi NNW 5.8 mph - 0.00 in   Overcast
9:05 PM 28.4 °F 22.2 °F 28.4 °F 100% 30.08 in 10.0 mi Variable 5.8 mph - N/A   Overcast
9:41 PM 30.2 °F 26.7 °F 26.6 °F 86% 30.10 in 10.0 mi Variable 3.5 mph - N/A   Overcast
9:56 PM 30.0 °F - 28.0 °F 92% 30.16 in 6.0 mi Calm Calm - 0.00 in Snow Light Snow
10:07 PM 30.2 °F - 28.4 °F 93% 30.11 in 2.5 mi Calm Calm - 0.00 in Snow Light Snow
10:12 PM 28.4 °F 24.6 °F 28.4 °F 100% 30.11 in 1.8 mi NNW 3.5 mph - 0.00 in Snow Light Snow
10:16 PM 28.4 °F - 28.4 °F 100% 30.11 in 0.8 mi Calm Calm - 0.00 in Snow Light Snow
10:31 PM 28.4 °F - 28.4 °F 100% 30.12 in 0.5 mi Calm Calm - 0.02 in Fog , Snow Light Snow
10:56 PM 28.9 °F - 28.0 °F 96% 30.19 in 0.8 mi Calm Calm - 0.04 in   Mist
11:25 PM 28.4 °F 24.6 °F 26.6 °F 93% 30.12 in 1.2 mi Variable 3.5 mph - N/A   Overcast
11:47 PM 28.4 °F 23.3 °F 26.6 °F 93% 30.12 in 1.8 mi NNW 4.6 mph - N/A   Overcast
11:54 PM 28.0 °F 24.2 °F 27.0 °F 96% 30.19 in 3.0 mi NNW 3.5 mph - N/A   Overcast